Year,Month,Day,Hour,Minute,Value (Times are PST for temperature in C)
2018,10,01,00,00,12.20
2018,10,01,00,01,12.20
2018,10,01,00,02,12.20
2018,10,01,00,03,12.20
2018,10,01,00,04,12.20
2018,10,01,00,05,12.20
2018,10,01,00,06,12.20
2018,10,01,00,07,12.20
2018,10,01,00,08,12.20
2018,10,01,00,09,12.20
2018,10,01,00,10,12.20
2018,10,01,00,11,12.20
2018,10,01,00,12,12.20
2018,10,01,00,13,12.20
2018,10,01,00,14,12.20
2018,10,01,00,15,12.20
2018,10,01,00,16,12.20
2018,10,01,00,17,12.20
2018,10,01,00,18,12.20
2018,10,01,00,19,12.30
2018,10,01,00,20,12.30
2018,10,01,00,21,12.30
2018,10,01,00,22,12.30
2018,10,01,00,23,12.30
2018,10,01,00,24,12.30
2018,10,01,00,25,12.30
2018,10,01,00,26,12.30
2018,10,01,00,27,12.30
2018,10,01,00,28,12.30
2018,10,01,00,29,12.30
2018,10,01,00,30,12.30
2018,10,01,00,31,12.30
2018,10,01,00,32,12.30
2018,10,01,00,33,12.30
2018,10,01,00,34,12.30
2018,10,01,00,35,12.40
2018,10,01,00,36,12.40
2018,10,01,00,37,12.40
2018,10,01,00,38,12.40
2018,10,01,00,39,12.40
2018,10,01,00,40,12.40
2018,10,01,00,41,12.40
2018,10,01,00,42,12.40
2018,10,01,00,43,12.40
2018,10,01,00,44,12.40
2018,10,01,00,45,12.40
2018,10,01,00,46,12.40
2018,10,01,00,47,12.40
2018,10,01,00,48,12.40
2018,10,01,00,49,12.40
2018,10,01,00,50,12.40
2018,10,01,00,51,12.40
2018,10,01,00,52,12.40
2018,10,01,00,53,12.40
2018,10,01,00,54,12.40
2018,10,01,00,55,12.40
2018,10,01,00,56,12.40
2018,10,01,00,57,12.40
2018,10,01,00,58,12.30
2018,10,01,00,59,12.30
2018,10,01,01,00,12.30
2018,10,01,01,01,12.30
2018,10,01,01,02,12.30
2018,10,01,01,03,12.30
2018,10,01,01,04,12.30
2018,10,01,01,05,12.30
2018,10,01,01,06,12.30
2018,10,01,01,07,12.30
2018,10,01,01,08,12.30
2018,10,01,01,09,12.30
2018,10,01,01,10,12.30
2018,10,01,01,11,12.30
2018,10,01,01,12,12.30
2018,10,01,01,13,12.30
2018,10,01,01,14,12.30
2018,10,01,01,15,12.30
2018,10,01,01,16,12.30
2018,10,01,01,17,12.30
2018,10,01,01,18,12.30
2018,10,01,01,19,12.30
2018,10,01,01,20,12.30
2018,10,01,01,21,12.30
2018,10,01,01,22,12.30
2018,10,01,01,23,12.30
2018,10,01,01,24,12.30
2018,10,01,01,25,12.30
2018,10,01,01,26,12.30
2018,10,01,01,27,12.30
2018,10,01,01,28,12.30
2018,10,01,01,29,12.30
2018,10,01,01,30,12.30
2018,10,01,01,31,12.30
2018,10,01,01,32,12.30
2018,10,01,01,33,12.30
2018,10,01,01,34,12.30
2018,10,01,01,35,12.30
2018,10,01,01,36,12.30
2018,10,01,01,37,12.30
2018,10,01,01,38,12.30
2018,10,01,01,39,12.30
2018,10,01,01,40,12.30
2018,10,01,01,41,12.30
2018,10,01,01,42,12.30
2018,10,01,01,43,12.30
2018,10,01,01,44,12.30
2018,10,01,01,45,12.30
2018,10,01,01,46,12.30
2018,10,01,01,47,12.30
2018,10,01,01,48,12.30
2018,10,01,01,49,12.30
2018,10,01,01,50,12.30
2018,10,01,01,51,12.30
2018,10,01,01,52,12.30
2018,10,01,01,53,12.30
2018,10,01,01,54,12.30
2018,10,01,01,55,12.30
2018,10,01,01,56,12.30
2018,10,01,01,57,12.30
2018,10,01,01,58,12.30
2018,10,01,01,59,12.30
2018,10,01,02,00,12.30
2018,10,01,02,01,12.30
2018,10,01,02,02,12.30
2018,10,01,02,03,12.30
2018,10,01,02,04,12.30
2018,10,01,02,05,12.30
2018,10,01,02,06,12.30
2018,10,01,02,07,12.30
2018,10,01,02,08,12.30
2018,10,01,02,09,12.30
2018,10,01,02,10,12.30
2018,10,01,02,11,12.30
2018,10,01,02,12,12.30
2018,10,01,02,13,12.30
2018,10,01,02,14,12.30
2018,10,01,02,15,12.30
2018,10,01,02,16,12.30
2018,10,01,02,17,12.30
2018,10,01,02,18,12.30
2018,10,01,02,19,12.30
2018,10,01,02,20,12.30
2018,10,01,02,21,12.30
2018,10,01,02,22,12.30
2018,10,01,02,23,12.30
2018,10,01,02,24,12.40
2018,10,01,02,25,12.40
2018,10,01,02,26,12.40
2018,10,01,02,27,12.40
2018,10,01,02,28,12.40
2018,10,01,02,29,12.40
2018,10,01,02,30,12.40
2018,10,01,02,31,12.40
2018,10,01,02,32,12.40
2018,10,01,02,33,12.50
2018,10,01,02,34,12.50
2018,10,01,02,35,12.50
2018,10,01,02,36,12.50
2018,10,01,02,37,12.50
2018,10,01,02,38,12.50
2018,10,01,02,39,12.50
2018,10,01,02,40,12.60
2018,10,01,02,41,12.60
2018,10,01,02,42,12.60
2018,10,01,02,43,12.60
2018,10,01,02,44,12.60
2018,10,01,02,45,12.60
2018,10,01,02,46,12.60
2018,10,01,02,47,12.60
2018,10,01,02,48,12.60
2018,10,01,02,49,12.60
2018,10,01,02,50,12.60
2018,10,01,02,51,12.60
2018,10,01,02,52,12.60
2018,10,01,02,53,12.60
2018,10,01,02,54,12.60
2018,10,01,02,55,12.60
2018,10,01,02,56,12.60
2018,10,01,02,57,12.60
2018,10,01,02,58,12.60
2018,10,01,02,59,12.60
2018,10,01,03,00,12.60
2018,10,01,03,01,12.60
2018,10,01,03,02,12.60
2018,10,01,03,03,12.60
2018,10,01,03,04,12.60
2018,10,01,03,05,12.60
2018,10,01,03,06,12.60
2018,10,01,03,07,12.60
2018,10,01,03,08,12.60
2018,10,01,03,09,12.60
2018,10,01,03,10,12.60
2018,10,01,03,11,12.60
2018,10,01,03,12,12.60
2018,10,01,03,13,12.60
2018,10,01,03,14,12.60
2018,10,01,03,15,12.70
2018,10,01,03,16,12.70
2018,10,01,03,17,12.70
2018,10,01,03,18,12.70
2018,10,01,03,19,12.70
2018,10,01,03,20,12.70
2018,10,01,03,21,12.70
2018,10,01,03,22,12.70
2018,10,01,03,23,12.70
2018,10,01,03,24,12.60
2018,10,01,03,25,12.60
2018,10,01,03,26,12.70
2018,10,01,03,27,12.70
2018,10,01,03,28,12.70
2018,10,01,03,29,12.70
2018,10,01,03,30,12.70
2018,10,01,03,31,12.70
2018,10,01,03,32,12.70
2018,10,01,03,33,12.70
2018,10,01,03,34,12.70
2018,10,01,03,35,12.70
2018,10,01,03,36,12.70
2018,10,01,03,37,12.70
2018,10,01,03,38,12.70
2018,10,01,03,39,12.70
2018,10,01,03,40,12.70
2018,10,01,03,41,12.70
2018,10,01,03,42,12.70
2018,10,01,03,43,12.70
2018,10,01,03,44,12.70
2018,10,01,03,45,12.70
2018,10,01,03,46,12.70
2018,10,01,03,47,12.70
2018,10,01,03,48,12.70
2018,10,01,03,49,12.60
2018,10,01,03,50,12.60
2018,10,01,03,51,12.60
2018,10,01,03,52,12.60
2018,10,01,03,53,12.60
2018,10,01,03,54,12.60
2018,10,01,03,55,12.60
2018,10,01,03,56,12.60
2018,10,01,03,57,12.60
2018,10,01,03,58,12.60
2018,10,01,03,59,12.60
2018,10,01,04,00,12.60
2018,10,01,04,01,12.60
2018,10,01,04,02,12.50
2018,10,01,04,03,12.60
2018,10,01,04,04,12.60
2018,10,01,04,05,12.60
2018,10,01,04,06,12.60
2018,10,01,04,07,12.60
2018,10,01,04,08,12.60
2018,10,01,04,09,12.60
2018,10,01,04,10,12.60
2018,10,01,04,11,12.60
2018,10,01,04,12,12.60
2018,10,01,04,13,12.60
2018,10,01,04,14,12.60
2018,10,01,04,15,12.60
2018,10,01,04,16,12.60
2018,10,01,04,17,12.70
2018,10,01,04,18,12.70
2018,10,01,04,19,12.70
2018,10,01,04,20,12.70
2018,10,01,04,21,12.70
2018,10,01,04,22,12.70
2018,10,01,04,23,12.70
2018,10,01,04,24,12.60
2018,10,01,04,25,12.60
2018,10,01,04,26,12.60
2018,10,01,04,27,12.60
2018,10,01,04,28,12.60
2018,10,01,04,29,12.60
2018,10,01,04,30,12.60
2018,10,01,04,31,12.60
2018,10,01,04,32,12.60
2018,10,01,04,33,12.60
2018,10,01,04,34,12.60
2018,10,01,04,35,12.60
2018,10,01,04,36,12.60
2018,10,01,04,37,12.60
2018,10,01,04,38,12.60
2018,10,01,04,39,12.60
2018,10,01,04,40,12.60
2018,10,01,04,41,12.60
2018,10,01,04,42,12.60
2018,10,01,04,43,12.70
2018,10,01,04,44,12.70
2018,10,01,04,45,12.70
2018,10,01,04,46,12.70
2018,10,01,04,47,12.70
2018,10,01,04,48,12.70
2018,10,01,04,49,12.70
2018,10,01,04,50,12.70
2018,10,01,04,51,12.80
2018,10,01,04,52,12.80
2018,10,01,04,53,12.80
2018,10,01,04,54,12.80
2018,10,01,04,55,12.80
2018,10,01,04,56,12.70
2018,10,01,04,57,12.70
2018,10,01,04,58,12.70
2018,10,01,04,59,12.70
2018,10,01,05,00,12.70
2018,10,01,05,01,12.70
2018,10,01,05,02,12.70
2018,10,01,05,03,12.70
2018,10,01,05,04,12.70
2018,10,01,05,05,12.70
2018,10,01,08,45,12.80
2018,10,01,08,46,12.90
2018,10,01,08,47,12.90
2018,10,01,08,48,12.90
2018,10,01,08,49,12.90
2018,10,01,08,50,12.90
2018,10,01,08,51,12.90
2018,10,01,08,52,12.90
2018,10,01,08,53,13.00
2018,10,01,08,54,13.00
2018,10,01,08,55,13.00
2018,10,01,08,56,13.00
2018,10,01,08,57,13.00
2018,10,01,08,58,13.10
2018,10,01,08,59,13.10
2018,10,01,09,00,13.10
2018,10,01,09,01,13.10
2018,10,01,09,02,13.20
2018,10,01,09,03,13.20
2018,10,01,09,04,13.20
2018,10,01,09,05,13.20
2018,10,01,09,06,13.20
2018,10,01,09,07,13.30
2018,10,01,09,08,13.30
2018,10,01,09,09,13.30
2018,10,01,09,10,13.30
2018,10,01,09,11,13.30
2018,10,01,09,12,13.30
2018,10,01,09,13,13.30
2018,10,01,09,14,13.30
2018,10,01,09,15,13.30
2018,10,01,09,16,13.30
2018,10,01,09,17,13.30
2018,10,01,09,18,13.30
2018,10,01,09,19,13.40
2018,10,01,09,20,13.40
2018,10,01,09,21,13.40
2018,10,01,09,22,13.40
2018,10,01,09,23,13.40
2018,10,01,09,24,13.40
2018,10,01,09,25,13.40
2018,10,01,09,26,13.40
2018,10,01,09,27,13.50
2018,10,01,09,28,13.50
2018,10,01,09,29,13.50
2018,10,01,09,30,13.60
2018,10,01,09,31,13.60
2018,10,01,09,32,13.60
2018,10,01,09,33,13.60
2018,10,01,09,34,13.60
2018,10,01,09,35,13.60
2018,10,01,09,36,13.70
2018,10,01,09,37,13.70
2018,10,01,09,38,13.70
2018,10,01,09,39,13.70
2018,10,01,09,40,13.70
2018,10,01,09,41,13.70
2018,10,01,09,42,13.70
2018,10,01,09,43,13.80
2018,10,01,09,44,13.90
2018,10,01,09,45,13.90
2018,10,01,09,46,14.00
2018,10,01,09,47,14.10
2018,10,01,09,48,14.10
2018,10,01,09,49,14.10
2018,10,01,09,50,14.10
2018,10,01,09,51,14.10
2018,10,01,09,52,14.10
2018,10,01,09,53,14.10
2018,10,01,09,54,14.10
2018,10,01,09,55,14.10
2018,10,01,09,56,14.10
2018,10,01,09,57,14.10
2018,10,01,09,58,14.10
2018,10,01,09,59,14.10
2018,10,01,10,00,14.10
2018,10,01,10,01,14.10
2018,10,01,10,02,14.10
2018,10,01,10,03,14.10
2018,10,01,10,04,14.20
2018,10,01,10,05,14.20
2018,10,01,10,06,14.30
2018,10,01,10,07,14.30
2018,10,01,10,08,14.40
2018,10,01,10,09,14.50
2018,10,01,10,10,14.70
2018,10,01,10,11,14.90
2018,10,01,10,12,15.00
2018,10,01,10,13,15.00
2018,10,01,10,14,15.00
2018,10,01,10,15,15.00
2018,10,01,10,16,14.90
2018,10,01,10,17,14.80
2018,10,01,10,18,14.80
2018,10,01,10,19,14.80
2018,10,01,10,20,14.80
2018,10,01,10,21,14.80
2018,10,01,10,22,14.80
2018,10,01,10,23,14.90
2018,10,01,10,24,15.00
2018,10,01,10,25,15.00
2018,10,01,10,26,15.10
2018,10,01,10,27,15.10
2018,10,01,10,28,15.10
2018,10,01,10,29,15.10
2018,10,01,10,30,15.00
2018,10,01,10,31,14.90
2018,10,01,10,32,15.00
2018,10,01,10,33,15.10
2018,10,01,10,34,15.10
2018,10,01,10,35,15.20
2018,10,01,10,36,15.30
2018,10,01,10,37,15.40
2018,10,01,10,38,15.40
2018,10,01,10,39,15.40
2018,10,01,10,40,15.40
2018,10,01,10,41,15.40
2018,10,01,10,42,15.40
2018,10,01,10,43,15.50
2018,10,01,10,44,15.50
2018,10,01,10,45,15.50
2018,10,01,10,46,15.40
2018,10,01,10,47,15.40
2018,10,01,10,48,15.50
2018,10,01,10,49,15.50
2018,10,01,10,50,15.50
2018,10,01,10,51,15.40
2018,10,01,10,52,15.50
2018,10,01,10,53,15.50
2018,10,01,10,54,15.50
2018,10,01,10,55,15.60
2018,10,01,10,56,15.50
2018,10,01,10,57,15.50
2018,10,01,10,58,15.40
2018,10,01,10,59,15.40
2018,10,01,11,00,15.40
2018,10,01,11,01,15.30
2018,10,01,11,02,15.30
2018,10,01,11,03,15.30
2018,10,01,11,04,15.30
2018,10,01,11,05,15.40
2018,10,01,11,06,15.60
2018,10,01,11,07,15.70
2018,10,01,11,08,15.80
2018,10,01,11,09,15.80
2018,10,01,11,10,15.90
2018,10,01,11,11,16.10
2018,10,01,11,12,16.20
2018,10,01,11,13,16.20
2018,10,01,11,14,16.20
2018,10,01,11,15,16.20
2018,10,01,11,16,16.10
2018,10,01,11,17,16.00
2018,10,01,11,18,16.00
2018,10,01,11,19,16.10
2018,10,01,11,20,16.10
2018,10,01,11,21,16.10
2018,10,01,11,22,15.90
2018,10,01,11,23,15.80
2018,10,01,11,24,15.80
2018,10,01,11,25,15.80
2018,10,01,11,26,15.80
2018,10,01,11,27,15.80
2018,10,01,11,28,15.90
2018,10,01,11,29,15.90
2018,10,01,11,30,15.90
2018,10,01,11,31,15.80
2018,10,01,11,32,15.80
2018,10,01,11,33,15.70
2018,10,01,11,34,15.70
2018,10,01,11,35,15.60
2018,10,01,11,36,15.50
2018,10,01,11,37,15.40
2018,10,01,11,38,15.40
2018,10,01,11,39,15.40
2018,10,01,11,40,15.30
2018,10,01,11,41,15.30
2018,10,01,11,42,15.20
2018,10,01,11,43,15.20
2018,10,01,11,44,15.10
2018,10,01,11,45,15.10
2018,10,01,11,46,15.00
2018,10,01,11,47,14.90
2018,10,01,11,48,14.80
2018,10,01,11,49,14.80
2018,10,01,11,50,14.70
2018,10,01,11,51,14.60
2018,10,01,11,52,14.60
2018,10,01,11,53,14.60
2018,10,01,11,54,14.70
2018,10,01,11,55,14.70
2018,10,01,11,56,14.60
2018,10,01,11,57,14.50
2018,10,01,11,58,14.50
2018,10,01,11,59,14.40
2018,10,01,12,00,14.40
2018,10,01,12,01,14.40
2018,10,01,12,02,14.40
2018,10,01,12,03,14.40
2018,10,01,12,04,14.40
2018,10,01,12,05,14.30
2018,10,01,12,06,14.20
2018,10,01,12,07,14.10
2018,10,01,12,08,14.00
2018,10,01,12,09,13.90
2018,10,01,12,10,13.80
2018,10,01,12,11,13.70
2018,10,01,12,12,13.60
2018,10,01,12,13,13.60
2018,10,01,12,14,13.50
2018,10,01,12,15,13.40
2018,10,01,12,16,13.40
2018,10,01,12,17,13.40
2018,10,01,12,18,13.30
2018,10,01,12,19,13.30
2018,10,01,12,20,13.30
2018,10,01,12,21,13.30
2018,10,01,12,22,13.30
2018,10,01,12,23,13.30
2018,10,01,12,24,13.30
2018,10,01,12,25,13.30
2018,10,01,12,26,13.30
2018,10,01,12,27,13.30
2018,10,01,12,28,13.40
2018,10,01,12,29,13.40
2018,10,01,12,30,13.50
2018,10,01,12,31,13.50
2018,10,01,12,32,13.60
2018,10,01,12,33,13.60
2018,10,01,12,34,13.60
2018,10,01,12,35,13.60
2018,10,01,12,36,13.60
2018,10,01,12,37,13.60
2018,10,01,12,38,13.70
2018,10,01,12,39,13.60
2018,10,01,12,40,13.60
2018,10,01,12,41,13.60
2018,10,01,12,42,13.60
2018,10,01,12,43,13.60
2018,10,01,12,44,13.70
2018,10,01,12,45,13.80
2018,10,01,12,46,13.80
2018,10,01,12,47,13.90
2018,10,01,12,48,13.90
2018,10,01,12,49,13.90
2018,10,01,12,50,13.90
2018,10,01,12,51,13.90
2018,10,01,12,52,13.90
2018,10,01,12,53,13.90
2018,10,01,12,54,13.90
2018,10,01,12,55,13.90
2018,10,01,12,56,13.90
2018,10,01,12,57,13.90
2018,10,01,12,58,13.90
2018,10,01,12,59,13.90
2018,10,01,13,00,14.00
2018,10,01,13,01,14.10
2018,10,01,13,02,14.20
2018,10,01,13,03,14.30
2018,10,01,13,04,14.30
2018,10,01,13,05,14.40
2018,10,01,13,06,14.50
2018,10,01,13,07,14.60
2018,10,01,13,08,14.60
2018,10,01,13,09,14.60
2018,10,01,13,10,14.70
2018,10,01,13,11,14.70
2018,10,01,13,12,14.70
2018,10,01,13,13,14.70
2018,10,01,13,14,14.90
2018,10,01,13,15,15.00
2018,10,01,13,16,15.10
2018,10,01,13,17,15.10
2018,10,01,13,18,15.10
2018,10,01,13,19,15.00
2018,10,01,13,20,15.00
2018,10,01,13,21,14.90
2018,10,01,13,22,14.90
2018,10,01,13,23,14.90
2018,10,01,13,24,14.90
2018,10,01,13,25,14.90
2018,10,01,13,26,14.90
2018,10,01,13,27,15.00
2018,10,01,13,28,15.10
2018,10,01,13,29,15.20
2018,10,01,13,30,15.30
2018,10,01,13,31,15.30
2018,10,01,13,32,15.30
2018,10,01,13,33,15.30
2018,10,01,13,34,15.40
2018,10,01,13,35,15.40
2018,10,01,13,36,15.40
2018,10,01,13,37,15.40
2018,10,01,13,38,15.40
2018,10,01,13,39,15.40
2018,10,01,13,40,15.50
2018,10,01,13,41,15.50
2018,10,01,13,42,15.40
2018,10,01,13,43,15.40
2018,10,01,13,44,15.40
2018,10,01,13,45,15.40
2018,10,01,13,46,15.40
2018,10,01,13,47,15.40
2018,10,01,13,48,15.50
2018,10,01,13,49,15.70
2018,10,01,13,50,15.90
2018,10,01,13,51,16.00
2018,10,01,13,52,16.10
2018,10,01,13,53,16.10
2018,10,01,13,54,16.10
2018,10,01,13,55,16.00
2018,10,01,13,56,15.90
2018,10,01,13,57,15.90
2018,10,01,13,58,16.00
2018,10,01,13,59,16.10
2018,10,01,14,00,16.10
2018,10,01,14,01,16.20
2018,10,01,14,02,16.30
2018,10,01,14,03,16.40
2018,10,01,14,04,16.50
2018,10,01,14,05,16.50
2018,10,01,14,06,16.60
2018,10,01,14,07,16.60
2018,10,01,14,08,16.60
2018,10,01,14,09,16.60
2018,10,01,14,10,16.60
2018,10,01,14,11,16.60
2018,10,01,14,12,16.60
2018,10,01,14,13,16.60
2018,10,01,14,14,16.70
2018,10,01,14,15,16.70
2018,10,01,14,16,16.70
2018,10,01,14,17,16.70
2018,10,01,14,18,16.70
2018,10,01,14,19,16.60
2018,10,01,14,20,16.60
2018,10,01,14,21,16.50
2018,10,01,14,22,16.50
2018,10,01,14,23,16.40
2018,10,01,14,24,16.40
2018,10,01,14,25,16.40
2018,10,01,14,26,16.40
2018,10,01,14,27,16.50
2018,10,01,14,28,16.60
2018,10,01,14,29,16.60
2018,10,01,14,30,16.60
2018,10,01,14,31,16.60
2018,10,01,14,32,16.60
2018,10,01,14,33,16.70
2018,10,01,14,34,16.70
2018,10,01,14,35,16.70
2018,10,01,14,36,16.70
2018,10,01,14,37,16.70
2018,10,01,14,38,16.70
2018,10,01,14,39,16.70
2018,10,01,14,40,16.80
2018,10,01,14,41,16.80
2018,10,01,14,42,16.80
2018,10,01,14,43,16.80
2018,10,01,14,44,16.70
2018,10,01,14,45,16.60
2018,10,01,14,46,16.60
2018,10,01,14,47,16.60
2018,10,01,14,48,16.60
2018,10,01,14,49,16.70
2018,10,01,14,50,16.70
2018,10,01,14,51,16.60
2018,10,01,14,52,16.60
2018,10,01,14,53,16.50
2018,10,01,14,54,16.50
2018,10,01,14,55,16.40
2018,10,01,14,56,16.40
2018,10,01,14,57,16.40
2018,10,01,14,58,16.40
2018,10,01,14,59,16.40
2018,10,01,15,00,16.40
2018,10,01,15,01,16.40
2018,10,01,15,02,16.40
2018,10,01,15,03,16.40
2018,10,01,15,04,16.40
2018,10,01,15,05,16.50
2018,10,01,15,06,16.50
2018,10,01,15,07,16.40
2018,10,01,15,08,16.40
2018,10,01,15,09,16.40
2018,10,01,15,10,16.30
2018,10,01,15,11,16.30
2018,10,01,15,12,16.30
2018,10,01,15,13,16.30
2018,10,01,15,14,16.30
2018,10,01,15,15,16.40
2018,10,01,15,16,16.50
2018,10,01,15,17,16.60
2018,10,01,15,18,16.70
2018,10,01,15,19,16.90
2018,10,01,15,20,17.00
2018,10,01,15,21,17.10
2018,10,01,15,22,17.20
2018,10,01,15,23,17.30
2018,10,01,15,24,17.30
2018,10,01,15,25,17.30
2018,10,01,15,26,17.30
2018,10,01,15,27,17.30
2018,10,01,15,28,17.20
2018,10,01,15,29,17.20
2018,10,01,15,30,17.10
2018,10,01,15,31,17.10
2018,10,01,15,32,17.10
2018,10,01,15,33,17.10
2018,10,01,15,34,17.10
2018,10,01,15,35,17.10
2018,10,01,15,36,17.00
2018,10,01,15,37,17.00
2018,10,01,15,38,16.90
2018,10,01,15,39,16.90
2018,10,01,15,40,16.90
2018,10,01,15,41,17.00
2018,10,01,15,42,17.00
2018,10,01,15,43,17.00
2018,10,01,15,44,17.00
2018,10,01,15,45,17.10
2018,10,01,15,46,17.20
2018,10,01,15,47,17.30
2018,10,01,15,48,17.40
2018,10,01,15,49,17.40
2018,10,01,15,50,17.50
2018,10,01,15,51,17.50
2018,10,01,15,52,17.60
2018,10,01,15,53,17.50
2018,10,01,15,54,17.50
2018,10,01,15,55,17.40
2018,10,01,15,56,17.40
2018,10,01,15,57,17.40
2018,10,01,15,58,17.30
2018,10,01,15,59,17.30
2018,10,01,16,00,17.20
2018,10,01,16,01,17.20
2018,10,01,16,02,17.10
2018,10,01,16,03,17.10
2018,10,01,16,04,17.00
2018,10,01,16,05,17.00
2018,10,01,16,06,16.90
2018,10,01,16,07,16.90
2018,10,01,16,08,17.00
2018,10,01,16,09,17.00
2018,10,01,16,10,17.00
2018,10,01,16,11,17.10
2018,10,01,16,12,17.10
2018,10,01,16,13,17.10
2018,10,01,16,14,17.10
2018,10,01,16,15,17.00
2018,10,01,16,16,17.00
2018,10,01,16,17,17.00
2018,10,01,16,18,16.90
2018,10,01,16,19,16.90
2018,10,01,16,20,16.90
2018,10,01,16,21,16.90
2018,10,01,16,22,16.90
2018,10,01,16,23,16.90
2018,10,01,16,24,16.90
2018,10,01,16,25,16.90
2018,10,01,16,26,17.00
2018,10,01,16,27,17.00
2018,10,01,16,28,17.00
2018,10,01,16,29,17.00
2018,10,01,16,30,16.90
2018,10,01,16,31,16.90
2018,10,01,16,32,16.90
2018,10,01,16,33,17.00
2018,10,01,16,34,17.00
2018,10,01,16,35,17.00
2018,10,01,16,36,17.00
2018,10,01,16,37,17.00
2018,10,01,16,38,16.90
2018,10,01,16,39,16.90
2018,10,01,16,40,16.80
2018,10,01,16,41,16.80
2018,10,01,16,42,16.70
2018,10,01,16,43,16.70
2018,10,01,16,44,16.60
2018,10,01,16,45,16.60
2018,10,01,16,46,16.50
2018,10,01,16,47,16.40
2018,10,01,16,48,16.40
2018,10,01,16,49,16.30
2018,10,01,16,50,16.30
2018,10,01,16,51,16.30
2018,10,01,16,52,16.20
2018,10,01,16,53,16.20
2018,10,01,16,54,16.10
2018,10,01,16,55,16.10
2018,10,01,16,56,16.20
2018,10,01,16,57,16.20
2018,10,01,16,58,16.20
2018,10,01,16,59,16.20
2018,10,01,17,00,16.30
2018,10,01,17,01,16.30
2018,10,01,17,02,16.40
2018,10,01,17,03,16.40
2018,10,01,17,04,16.50
2018,10,01,17,05,16.60
2018,10,01,17,06,16.70
2018,10,01,17,07,16.70
2018,10,01,17,08,16.80
2018,10,01,17,09,16.80
2018,10,01,17,10,16.70
2018,10,01,17,11,16.70
2018,10,01,17,12,16.80
2018,10,01,17,13,16.90
2018,10,01,17,14,16.90
2018,10,01,17,15,16.90
2018,10,01,17,16,16.80
2018,10,01,17,17,16.70
2018,10,01,17,18,16.70
2018,10,01,17,19,16.60
2018,10,01,17,20,16.50
2018,10,01,17,21,16.50
2018,10,01,17,22,16.60
2018,10,01,17,23,16.60
2018,10,01,17,24,16.60
2018,10,01,17,25,16.70
2018,10,01,17,26,16.80
2018,10,01,17,27,16.90
2018,10,01,17,28,16.90
2018,10,01,17,29,16.90
2018,10,01,17,30,16.90
2018,10,01,17,31,16.90
2018,10,01,17,32,16.80
2018,10,01,17,33,16.80
2018,10,01,17,34,16.80
2018,10,01,17,35,16.80
2018,10,01,17,36,16.80
2018,10,01,17,37,16.80
2018,10,01,17,38,16.70
2018,10,01,17,39,16.60
2018,10,01,17,40,16.60
2018,10,01,17,41,16.50
2018,10,01,17,42,16.40
2018,10,01,17,43,16.40
2018,10,01,17,44,16.30
2018,10,01,17,45,16.30
2018,10,01,17,46,16.20
2018,10,01,17,47,16.10
2018,10,01,17,48,16.10
2018,10,01,17,49,16.10
2018,10,01,17,50,16.10
2018,10,01,17,51,16.10
2018,10,01,17,52,16.10
2018,10,01,17,53,16.10
2018,10,01,17,54,16.10
2018,10,01,17,55,16.00
2018,10,01,17,56,16.00
2018,10,01,17,57,15.90
2018,10,01,17,58,15.80
2018,10,01,17,59,15.80
2018,10,01,18,00,15.70
2018,10,01,18,01,15.80
2018,10,01,18,02,15.80
2018,10,01,18,03,15.80
2018,10,01,18,04,15.80
2018,10,01,18,05,15.80
2018,10,01,18,06,15.70
2018,10,01,18,07,15.70
2018,10,01,18,08,15.60
2018,10,01,18,09,15.60
2018,10,01,18,10,15.50
2018,10,01,18,11,15.50
2018,10,01,18,12,15.40
2018,10,01,18,13,15.40
2018,10,01,18,14,15.30
2018,10,01,18,15,15.30
2018,10,01,18,16,15.30
2018,10,01,18,17,15.30
2018,10,01,18,18,15.30
2018,10,01,18,19,15.30
2018,10,01,18,20,15.30
2018,10,01,18,21,15.40
2018,10,01,18,22,15.50
2018,10,01,18,23,15.60
2018,10,01,18,24,15.80
2018,10,01,18,25,15.90
2018,10,01,18,26,15.90
2018,10,01,18,27,15.90
2018,10,01,18,28,15.80
2018,10,01,18,29,15.80
2018,10,01,18,30,15.70
2018,10,01,18,31,15.60
2018,10,01,18,32,15.60
2018,10,01,18,33,15.50
2018,10,01,18,34,15.50
2018,10,01,18,35,15.40
2018,10,01,18,36,15.30
2018,10,01,18,37,15.40
2018,10,01,18,38,15.50
2018,10,01,18,39,15.60
2018,10,01,18,40,15.70
2018,10,01,18,41,15.80
2018,10,01,18,42,15.90
2018,10,01,18,43,16.00
2018,10,01,18,44,16.00
2018,10,01,18,45,16.00
2018,10,01,18,46,16.00
2018,10,01,18,47,16.00
2018,10,01,18,48,15.90
2018,10,01,18,49,15.80
2018,10,01,18,50,15.70
2018,10,01,18,51,15.60
2018,10,01,18,52,15.50
2018,10,01,18,53,15.40
2018,10,01,18,54,15.30
2018,10,01,18,55,15.20
2018,10,01,18,56,15.20
2018,10,01,18,57,15.20
2018,10,01,18,58,15.20
2018,10,01,18,59,15.10
2018,10,01,19,00,15.10
2018,10,01,19,01,15.10
2018,10,01,19,02,15.10
2018,10,01,19,03,15.30
2018,10,01,19,04,15.40
2018,10,01,19,05,15.50
2018,10,01,19,06,15.70
2018,10,01,19,07,15.70
2018,10,01,19,08,15.70
2018,10,01,19,09,15.70
2018,10,01,19,10,15.70
2018,10,01,19,11,15.60
2018,10,01,19,12,15.50
2018,10,01,19,13,15.50
2018,10,01,19,14,15.40
2018,10,01,19,15,15.40
2018,10,01,19,16,15.30
2018,10,01,19,17,15.30
2018,10,01,19,18,15.30
2018,10,01,19,19,15.30
2018,10,01,19,20,15.30
2018,10,01,19,21,15.30
2018,10,01,19,22,15.20
2018,10,01,19,23,15.20
2018,10,01,19,24,15.30
2018,10,01,19,25,15.30
2018,10,01,19,26,15.40
2018,10,01,19,27,15.60
2018,10,01,19,28,15.70
2018,10,01,19,29,15.80
2018,10,01,19,30,15.90
2018,10,01,19,31,15.90
2018,10,01,19,32,15.90
2018,10,01,19,33,16.00
2018,10,01,19,34,16.10
2018,10,01,19,35,16.20
2018,10,01,19,36,16.10
2018,10,01,19,37,16.00
2018,10,01,19,38,15.90
2018,10,01,19,39,15.90
2018,10,01,19,40,15.90
2018,10,01,19,41,15.90
2018,10,01,19,42,15.80
2018,10,01,19,43,15.80
2018,10,01,19,44,15.70
2018,10,01,19,45,15.70
2018,10,01,19,46,15.80
2018,10,01,19,47,15.80
2018,10,01,19,48,15.90
2018,10,01,19,49,16.00
2018,10,01,19,50,16.10
2018,10,01,19,51,16.00
2018,10,01,19,52,16.00
2018,10,01,19,53,16.00
2018,10,01,19,54,16.00
2018,10,01,19,55,15.90
2018,10,01,19,56,15.90
2018,10,01,19,57,15.70
2018,10,01,19,58,15.60
2018,10,01,19,59,15.70
2018,10,01,20,00,15.80
2018,10,01,20,01,15.90
2018,10,01,20,02,16.10
2018,10,01,20,03,16.10
2018,10,01,20,04,16.20
2018,10,01,20,05,16.20
2018,10,01,20,06,16.20
2018,10,01,20,07,16.10
2018,10,01,20,08,16.10
2018,10,01,20,09,16.00
2018,10,01,20,10,15.90
2018,10,01,20,11,15.90
2018,10,01,20,12,15.90
2018,10,01,20,13,16.00
2018,10,01,20,14,16.00
2018,10,01,20,15,15.90
2018,10,01,20,16,15.80
2018,10,01,20,17,15.80
2018,10,01,20,18,15.80
2018,10,01,20,19,15.70
2018,10,01,20,20,15.60
2018,10,01,20,21,15.50
2018,10,01,20,22,15.50
2018,10,01,20,23,15.40
2018,10,01,20,24,15.30
2018,10,01,20,25,15.30
2018,10,01,20,26,15.30
2018,10,01,20,27,15.30
2018,10,01,20,28,15.30
2018,10,01,20,29,15.20
2018,10,01,20,30,15.20
2018,10,01,20,31,15.20
2018,10,01,20,32,15.20
2018,10,01,20,33,15.20
2018,10,01,20,34,15.20
2018,10,01,20,35,15.20
2018,10,01,20,36,15.20
2018,10,01,20,37,15.10
2018,10,01,20,38,15.10
2018,10,01,20,39,15.10
2018,10,01,20,40,15.10
2018,10,01,20,41,15.10
2018,10,01,20,42,15.30
2018,10,01,20,43,15.40
2018,10,01,20,44,15.40
2018,10,01,20,45,15.40
2018,10,01,20,46,15.40
2018,10,01,20,47,15.40
2018,10,01,20,48,15.30
2018,10,01,20,49,15.30
2018,10,01,20,50,15.30
2018,10,01,20,51,15.30
2018,10,01,20,52,15.20
2018,10,01,20,53,15.20
2018,10,01,20,54,15.20
2018,10,01,20,55,15.20
2018,10,01,20,56,15.20
2018,10,01,20,57,15.20
2018,10,01,20,58,15.20